[[{"header":{"parameterUnit":"m.s-1","parameterCategory":1,"la1":30.2991,"la2":30.254,"lo1":-89.0895,"lo2":-89.0444,"dy":0.0017,"dx":0.0017,"nx":28,"ny":28,"refTime":"2024-08-26T21:00:00:Z","depth":0,"parameterNumber":2,"parameterNumberName":"U-component_of_WINDS"},"data":[0,0,0,0,0,0,0,0,0,0,0,0,0,0,0,0,0,0,0,0,0,0,0,0,0,0,0,0,0,0,0,0,0,0,0,0,0,0,0,0,0,0,0,0,0,0,0,0,0,0,0,0,0,0,0,0,0,0,1.1287,1.1288,0,1.1352,1.1353,1.1354,1.1393,1.1393,1.1393,1.1393,1.1457,1.1458,1.146,0,0,0,0,0,0,0,0,0,0,0,0,0,1.1191,1.1192,1.1287,1.1288,1.1288,1.1352,1.1353,1.1354,1.1393,1.1393,1.1393,1.1393,1.1456,1.1458,1.146,0,0,0,0,0,0,0,0,0,0,0,0,0,1.1242,1.1193,1.1287,1.1315,1.1319,1.1352,1.1353,1.1354,1.1393,1.1393,1.1393,1.1393,1.1456,1.1458,1.146,1.1469,0,0,1.1467,1.1468,0,0,0,0,0,0,0,0,1.1239,1.1245,1.131,1.1314,1.1317,1.1365,1.1343,1.1393,1.1392,1.1364,1.1393,1.1393,1.1426,1.143,1.1442,1.1472,1.1475,1.1467,1.1469,1.147,1.147,0,0,0,0,0,0,0,1.1235,1.1243,1.1313,1.1311,1.1315,1.1324,1.1331,1.1352,1.1393,1.1367,1.137,1.1377,1.1428,1.144,1.1444,1.1475,1.1467,1.1469,1.1471,1.1472,1.1514,1.1514,0,0,0,0,0,0,1.1228,1.1239,1.1311,1.1315,1.1278,1.1325,1.1334,1.1349,1.1393,1.1399,1.1377,1.1379,1.1436,1.1441,1.1446,1.1458,1.147,1.1472,1.1473,1.1514,1.1514,1.1514,0,0,0,0,0,0,1.1225,1.1234,1.1308,1.1278,1.1288,1.1327,1.1344,1.135,1.1363,1.14,1.1407,1.1382,1.1436,1.1443,1.1463,1.1461,1.1473,1.1475,1.1515,1.1514,1.1514,1.1483,0,0,0,0,0,0,1.1223,1.1233,1.1238,1.1278,1.1289,1.1325,1.1344,1.1351,1.1367,1.137,1.1407,1.1413,1.1437,1.1459,1.1465,1.1465,1.1477,1.1515,1.1514,1.1514,1.1485,1.1482,1.148,0,0,0,0,0,1.1219,1.1226,1.1238,1.1246,1.1297,1.1325,1.1331,1.1359,1.1367,1.1371,1.1395,1.1412,1.146,1.1461,1.1468,1.1468,1.1515,1.1515,1.1514,1.1486,1.1482,1.148,0,0,0,0,0,0,1.1184,1.1232,1.1245,1.1266,1.1291,1.1331,1.1338,1.1355,1.1378,1.1379,1.1412,1.142,1.1436,1.1454,1.1454,1.1478,1.149,1.149,1.1466,1.1463,1.146,1.1455,1.1479,0,0,0,0,0,1.1178,1.1198,1.1239,1.1253,1.1265,1.1299,1.1312,1.1331,1.1358,1.1369,1.1394,1.1419,1.1439,1.1452,1.1473,1.1487,1.1495,1.1491,1.1488,1.1486,1.1486,1.1493,1.1492,1.1512,1.1512,1.1512,0,0,1.1167,1.1196,1.1207,1.1246,1.1268,1.1287,1.1308,1.1327,1.134,1.1371,1.1392,1.1411,1.144,1.1457,1.1466,1.1472,1.1482,1.1485,1.1483,1.1485,1.1493,1.1491,1.1489,1.1512,1.1512,1.1512,0,0,1.1157,1.1181,1.1195,1.1216,1.1249,1.1272,1.1275,1.1312,1.1326,1.1348,1.1371,1.1387,1.1422,1.1442,1.1456,1.1451,1.1467,1.1457,1.1444,1.1451,1.1449,1.1448,1.1445,1.1444,1.1457,1.1457,1.1457,0,1.1139,1.1169,1.12,1.1217,1.1233,1.1263,1.1276,1.1295,1.1332,1.1342,1.1349,1.1393,1.1415,1.1436,1.1435,1.1446,1.1449,1.1453,1.1447,1.1446,1.1445,1.1443,1.1442,1.1456,1.1456,1.1456,1.1456,0,1.1144,1.1165,1.1172,1.1208,1.1225,1.124,1.1271,1.1284,1.1302,1.1323,1.1343,1.137,1.1396,1.1403,1.142,1.1426,1.1429,1.1441,1.1454,1.1441,1.144,1.1439,1.1453,1.1454,1.1454,1.1455,0,0,1.1114,1.1167,1.1169,1.1185,1.1223,1.1238,1.1254,1.1281,1.129,1.1315,1.1328,1.1356,1.1368,1.1384,1.1403,1.1409,1.1402,1.1421,1.1422,1.1415,1.1409,1.1399,1.1398,1.1413,1.1413,1.1413,1.1406,0,1.1109,1.114,1.1167,1.1187,1.1206,1.1233,1.1247,1.127,1.129,1.1307,1.1328,1.1348,1.1362,1.1372,1.1379,1.1401,1.1401,1.1402,1.1424,1.1425,1.1416,1.1397,1.1387,1.1379,1.1406,1.1406,1.1406,0,1.1107,1.1131,1.1153,1.1188,1.1196,1.1208,1.1234,1.1251,1.1277,1.1291,1.1309,1.1329,1.1345,1.1355,1.1377,1.1377,1.1388,1.14,1.14,1.1403,1.1414,1.1398,1.1377,1.1376,1.1405,1.1405,1.1405,0,1.1082,1.1119,1.1137,1.115,1.1191,1.1199,1.1216,1.1243,1.1257,1.1279,1.1288,1.1311,1.1324,1.1341,1.1366,1.1371,1.1384,1.1397,1.1395,1.1394,1.1396,1.1396,1.1376,1.1404,1.1404,1.1404,1.1404,0,1.1072,1.1085,1.1126,1.1137,1.1151,1.1181,1.1194,1.1213,1.1237,1.1251,1.1276,1.1288,1.1321,1.1336,1.1356,1.137,1.1376,1.1386,1.1391,1.1384,1.1382,1.1391,1.1392,1.1404,1.1404,1.1404,1.1404,0,1.1047,1.1075,1.1096,1.1133,1.1143,1.1151,1.1182,1.1193,1.1214,1.1231,1.1237,1.1269,1.1288,1.1315,1.1343,1.1356,1.1367,1.1376,1.1359,1.1361,1.1357,1.1357,1.1342,1.1341,1.137,1.1369,1.1369,0,1.1039,1.1049,1.1087,1.1098,1.1115,1.1133,1.1148,1.1177,1.119,1.1221,1.1227,1.1249,1.1268,1.1298,1.1323,1.1344,1.1352,1.1346,1.1356,1.1347,1.1351,1.135,1.135,1.1343,1.1342,1.1342,1.1342,0,1.1021,1.1035,1.1055,1.1079,1.1096,1.1116,1.1138,1.1145,1.1179,1.1192,1.1213,1.1228,1.1256,1.1277,1.1301,1.1317,1.1334,1.1338,1.1339,1.1331,1.132,1.1325,1.1351,1.1339,1.1339,1.1339,1.1339,1.1339,1.1004,1.1014,1.1042,1.1063,1.1082,1.1101,1.1113,1.1135,1.1153,1.1179,1.1194,1.1214,1.1239,1.1273,1.1288,1.1303,1.131,1.1311,1.1311,1.1311,1.1308,1.1318,1.1308,1.1308,1.1308,1.1308,1.1308,0,1.0987,1.1006,1.1025,1.1055,1.107,1.1086,1.111,1.1122,1.1139,1.1161,1.118,1.1202,1.1222,1.1248,1.127,1.1276,1.1285,1.1281,1.128,1.1284,1.1301,1.1298,1.1274,1.1274,1.1274,1.1274,1.1274,1.1274,1.098,1.0997,1.1013,1.1039,1.1058,1.1078,1.109,1.1107,1.1125,1.1149,1.1166,1.1183,1.1207,1.123,1.1248,1.1255,1.1261,1.1255,1.1264,1.1279,1.1283,1.1285,1.1283,1.1256,1.1256,1.1246,1.1246,1.1245]},{"header":{"parameterUnit":"m.s-1","parameterCategory":1,"la1":30.2991,"la2":30.254,"lo1":-89.0895,"lo2":-89.0444,"dy":0.0017,"dx":0.0017,"nx":28,"ny":28,"refTime":"2024-08-26T21:00:00:Z","depth":0,"parameterNumber":3,"parameterNumberName":"V-component_of_WINDS"},"data":[0,0,0,0,0,0,0,0,0,0,0,0,0,0,0,0,0,0,0,0,0,0,0,0,0,0,0,0,0,0,0,0,0,0,0,0,0,0,0,0,0,0,0,0,0,0,0,0,0,0,0,0,0,0,0,0,0,0,0.1961,0.196,0,0.1898,0.1897,0.1897,0.186,0.1859,0.1859,0.1859,0.1793,0.1792,0.179,0,0,0,0,0,0,0,0,0,0,0,0,0,0.2048,0.2047,0.1961,0.196,0.196,0.1898,0.1897,0.1896,0.186,0.1859,0.1859,0.1859,0.1794,0.1792,0.179,0,0,0,0,0,0,0,0,0,0,0,0,0,0.2,0.2046,0.1961,0.1934,0.1931,0.1898,0.1897,0.1896,0.186,0.1859,0.1859,0.1859,0.1794,0.1792,0.1789,0.1779,0,0,0.1782,0.1781,0,0,0,0,0,0,0,0,0.2003,0.1997,0.1939,0.1936,0.1932,0.1886,0.1904,0.1857,0.186,0.1887,0.1859,0.1859,0.1824,0.1819,0.1808,0.1776,0.1773,0.1782,0.178,0.1779,0.1779,0,0,0,0,0,0,0,0.2006,0.1999,0.1936,0.1938,0.1934,0.1924,0.1917,0.1894,0.1857,0.1884,0.1881,0.1875,0.1822,0.181,0.1806,0.1772,0.1782,0.178,0.1778,0.1777,0.1727,0.1727,0,0,0,0,0,0,0.2014,0.2002,0.1938,0.1934,0.1968,0.1923,0.1915,0.1901,0.1858,0.1851,0.1875,0.1873,0.1815,0.1809,0.1804,0.1788,0.1779,0.1777,0.1776,0.1727,0.1727,0.1727,0,0,0,0,0,0,0.2016,0.2009,0.1941,0.1968,0.1958,0.1921,0.1907,0.19,0.1888,0.185,0.1843,0.1869,0.1814,0.1807,0.1785,0.1785,0.1776,0.1774,0.1726,0.1727,0.1727,0.1756,0,0,0,0,0,0,0.2019,0.201,0.2006,0.1968,0.1957,0.1924,0.1907,0.1899,0.1884,0.1881,0.1844,0.1837,0.1813,0.1789,0.1783,0.1781,0.1772,0.1726,0.1726,0.1727,0.1755,0.1757,0.1759,0,0,0,0,0,0.2022,0.2017,0.2006,0.1998,0.1951,0.1924,0.1918,0.1891,0.1884,0.188,0.1855,0.1838,0.1786,0.1787,0.178,0.1778,0.1726,0.1726,0.1727,0.1754,0.1757,0.1759,0,0,0,0,0,0,0.2055,0.2011,0.1999,0.1981,0.1957,0.1918,0.1911,0.1895,0.1872,0.187,0.1838,0.1829,0.181,0.1792,0.1794,0.1764,0.1754,0.1753,0.1777,0.178,0.1782,0.1786,0.177,0,0,0,0,0,0.2061,0.2043,0.2005,0.1993,0.1981,0.1948,0.1936,0.1917,0.189,0.188,0.1854,0.1828,0.1806,0.1792,0.1769,0.1752,0.1743,0.1747,0.1749,0.1751,0.175,0.1739,0.174,0.1728,0.1728,0.1728,0,0,0.2071,0.2045,0.2036,0.1999,0.1978,0.1959,0.194,0.1921,0.1907,0.1877,0.1854,0.1834,0.1803,0.1784,0.1774,0.1768,0.1751,0.1751,0.1753,0.1751,0.1739,0.174,0.1741,0.1728,0.1728,0.1728,0,0,0.2081,0.206,0.2047,0.2026,0.1995,0.1973,0.197,0.1933,0.1919,0.1896,0.1873,0.1855,0.1817,0.1796,0.178,0.1781,0.1764,0.1775,0.1785,0.1775,0.1776,0.1776,0.1776,0.1776,0.1774,0.1774,0.1774,0,0.2098,0.207,0.2042,0.2025,0.2009,0.1981,0.1967,0.1948,0.1911,0.19,0.1894,0.1845,0.1822,0.1797,0.1797,0.1785,0.178,0.1779,0.1778,0.1778,0.1778,0.1778,0.1778,0.1776,0.1775,0.1775,0.1775,0,0.2092,0.2073,0.2066,0.2031,0.2014,0.1999,0.1968,0.1954,0.1937,0.1916,0.1892,0.1864,0.1834,0.1827,0.181,0.1799,0.1796,0.1784,0.1773,0.1782,0.178,0.178,0.1778,0.1777,0.1777,0.1776,0,0,0.2122,0.2071,0.2069,0.2052,0.2015,0.1999,0.1982,0.1953,0.1942,0.1917,0.1901,0.1869,0.1858,0.184,0.1821,0.1811,0.1813,0.18,0.1799,0.1803,0.1798,0.1806,0.1806,0.1801,0.1801,0.1801,0.18,0,0.2126,0.2094,0.2068,0.2046,0.2027,0.2,0.1984,0.1959,0.1939,0.1919,0.1896,0.1874,0.1861,0.185,0.184,0.1815,0.1811,0.1815,0.1786,0.1785,0.1794,0.1806,0.1815,0.1815,0.1799,0.1799,0.1799,0,0.2126,0.2102,0.2078,0.2042,0.2033,0.202,0.1992,0.1974,0.1944,0.193,0.191,0.1889,0.1869,0.186,0.1831,0.1834,0.182,0.1806,0.1806,0.1801,0.1792,0.1802,0.1815,0.1815,0.1798,0.1798,0.1798,0,0.2149,0.2111,0.2091,0.2078,0.2036,0.2027,0.2009,0.1979,0.1964,0.1939,0.1928,0.1901,0.1886,0.1865,0.1837,0.1833,0.181,0.1799,0.1797,0.1798,0.1793,0.1794,0.1804,0.1786,0.1786,0.1786,0.1786,0,0.2156,0.2142,0.2101,0.2089,0.2072,0.2042,0.2026,0.2006,0.198,0.1962,0.1937,0.1921,0.1886,0.1866,0.1844,0.1822,0.1816,0.1803,0.1797,0.1805,0.1807,0.1796,0.1795,0.1786,0.1786,0.1786,0.1786,0,0.2179,0.2151,0.2128,0.2089,0.2079,0.2069,0.2035,0.2022,0.2,0.1978,0.1972,0.1937,0.1911,0.1882,0.1847,0.1832,0.1812,0.1804,0.1822,0.1819,0.1818,0.1818,0.1821,0.1819,0.1803,0.1803,0.1803,0,0.2185,0.2174,0.2134,0.2121,0.2104,0.2083,0.2067,0.2036,0.202,0.1986,0.1977,0.195,0.1926,0.1887,0.1858,0.1831,0.1821,0.1824,0.1817,0.1825,0.1821,0.1821,0.182,0.1826,0.1826,0.1827,0.1827,0,0.2199,0.2185,0.2163,0.2136,0.2118,0.2095,0.2071,0.2061,0.2026,0.2009,0.1983,0.1965,0.1929,0.1902,0.1871,0.1852,0.1833,0.1829,0.1827,0.1835,0.1846,0.1839,0.1827,0.1829,0.1829,0.1829,0.1829,0.1829,0.2213,0.2201,0.2171,0.2147,0.2126,0.2104,0.209,0.2066,0.2044,0.2012,0.1995,0.197,0.194,0.1896,0.1877,0.1856,0.185,0.1847,0.1846,0.1846,0.1847,0.1849,0.185,0.185,0.185,0.185,0.185,0,0.2224,0.2204,0.2182,0.2149,0.213,0.2115,0.2087,0.2072,0.205,0.2024,0.2001,0.1971,0.1944,0.1913,0.1885,0.1874,0.1864,0.1867,0.1867,0.1863,0.1855,0.186,0.1875,0.1875,0.1875,0.1875,0.1875,0.1875,0.2228,0.2207,0.219,0.2158,0.2138,0.2112,0.2098,0.2077,0.2056,0.2023,0.2001,0.1981,0.1953,0.1922,0.1896,0.1888,0.1878,0.1883,0.1872,0.1866,0.1863,0.1861,0.1865,0.1882,0.1882,0.1881,0.1881,0.1881]}]]